Tracking 18980 objects as of 21-Feb-2018
HD Live streaming from Space Station
objects crossing your sky now

BEIDOU IGSO 3

Track BEIDOU IGSO 3 now!
BEIDOU IGSO 3 is classified as:


NORAD ID: 37384
Int'l Code: 2011-013A
Perigee: 35,637.9 km
Apogee: 35,935.0 km
Inclination: 58.1 °
Period: 1,435.7 minutes
Semi major axis: 42157 km
RCS: 25.1189 m2 (large)
Launch date: April 9, 2011
Source: People's Republic of China (PRC)
Launch site: Xichang Space Center, China (XSC)

BEIDOU IGSO 3 is part of China's Beidou Navigation System. The high-inclination orbit is going to give advantage to users in polar regions.
aabbcc
Your satellite tracking list
Your tracking list is empty




NASA's NSSDC Master Catalog

Two Line Element Set (TLE):
1 37384U 11013A   18052.27832110 -.00000159  00000-0  10000-3 0  9991
2 37384  58.1474  70.3276 0035234 208.8537  89.8226  1.00297712 25215
Source of the keplerian elements: AFSPC